Regional Weather Roundup
Issued by NWS

Home | Current Version | Previous Version | Graphics & Text | Print | Product List | Glossary On
Versions: 1 2 3 4 5 6 7 8 9 10 11 12 13 14 15 16 17 18 19 20 21 22 23 24 25 26 27 28 29 30 31 32 33 34 35 36 37 38 39 40 41 42 43 44 45 46 47 48 49 50
000
ASUS43 KMPX 300710
RWRMN
WEATHER ROUNDUP FOR MINNESOTA
NATIONAL WEATHER SERVICE TWIN CITIES/CHANHASSEN MN
200 AM CDT FRI SEP 30 2016


NOTE: "FAIR" INDICATES FEW OR NO CLOUDS BELOW 12,000 FEET WITH NO
SIGNIFICANT WEATHER AND/OR OBSTRUCTIONS TO VISIBILITY. N/A MEANS
CURRENT SKY AND/OR WEATHER CONDITIONS ARE NOT AVAILABLE.

MNZ060>063-068>070-300800-
   Twin Cities Metro

CITY           SKY/WX    TMP DP  RH WIND       PRES   REMARKS
TWIN CITIES    CLEAR     53  50  89 N3        30.38F
ST PAUL        CLEAR     53  50  89 CALM      30.39S
CRYSTAL        FOG       48  45  89 CALM      30.37F VSB 1/2
BLAINE         CLEAR     50  50 100 CALM      30.39S FOG
LAKEVILLE      CLEAR     46  46 100 CALM      30.38S FOG
EDEN PRAIRIE   CLEAR     52  49  89 CALM      30.37S
LAKEVILLE      CLEAR     46  46 100 CALM      30.38S FOG
SOUTH ST PAUL  CLEAR     53  50  89 CALM      30.38S
LAKE ELMO      FAIR      50  50 100 CALM      30.39F
$$
MNZ001>005-007-008-013>017-022>024-027-028-300800-
   Northwest Minnesota

CITY           SKY/WX    TMP DP  RH WIND       PRES   REMARKS
BEMIDJI        PTCLDY    49  46  90 SE6       30.41S
HALLOCK        CLEAR     48  46  93 SE9       30.36F
ROSEAU         CLEAR     48  43  81 SE3       30.40F HAZE
WARROAD        CLEAR     48  45  87 SE5       30.42S
THIEF RVR FALL CLEAR     46  43  89 SE8       30.40F
CROOKSTON      CLEAR     46  45  93 SE8       30.38F
FOSSTON        CLEAR     46  43  87 SE6       30.40F
DETROIT LAKES  CLEAR     50  46  87 SE7       30.41S
MOORHEAD       CLEAR     48  45  87 SE5       30.38S
PARK RAPIDS    CLEAR     49  44  83 SE6       30.41F
MAHNOMEN       FAIR      49  46  87 SE8       30.39S
$$
MNZ006-009>011-018-025>026-300800-
   North Central Minnesota

CITY           SKY/WX    TMP DP  RH WIND       PRES   REMARKS
BAUDETTE       CLOUDY    52  47  83 E7        30.43F
FLAG ISLAND    CLOUDY    55  48  76 SE10      30.41S
INTL FALLS     CLOUDY    48  45  89 E3        30.45S
WASKISH        CLOUDY    52  48  87 SE3       30.43S
BIG FORK       CLEAR     39  37  93 CALM      30.44F
GRAND RAPIDS   FOG       46  46 100 SE6       30.46S VSB 3/4
CRANE LAKE     PTCLDY    39  39 100 CALM      30.48S
ORR            CLEAR     43  39  87 CALM      30.43S FOG
COOK           CLEAR     43  41  93 CALM      30.45S
WALKER         FAIR      48  45  89 CALM      30.42S
$$
MNZ012-019>021-037-300800-
   Northeast Minnesota

CITY           SKY/WX    TMP DP  RH WIND       PRES   REMARKS
DULUTH         CLOUDY    51  51 100 E7        30.44S FOG
ELY            CLEAR     39  39 100 CALM      30.46S FOG
HIBBING        FOG       46  46 100 CALM      30.45S VSB 1/2
EVELETH        FOG       46  46  97 CALM      30.46S VSB 3/4
DULUTH HARBOR  CLOUDY    55  52  88 E10       30.45F
TWO HARBORS    CLOUDY    54  48  82 E7        30.44S
SILVER BAY     CLOUDY    54  52  94 CALM      30.44F
GRAND MARAIS     N/A     48  47  96 CALM      30.46S
G MARAIS ARPRT CLEAR     43  39  87 N5        30.47F
$$
MNZ029>031-032-039>041-046>048-054>057-064-300800-
   West Central Minnesota

CITY           SKY/WX    TMP DP  RH WIND       PRES   REMARKS
FERGUS FALLS   CLEAR     52  46  82 SE7       30.40S
WHEATON        CLEAR     46  45  93 SE8       30.39S
MORRIS         CLEAR     48  46  93 E9        30.37F
ALEXANDRIA     CLEAR     48  48 100 E6        30.41S
ELBOW LAKE     FAIR      49  48  95 SE9       30.39S
WADENA         CLEAR     45  45 100 CALM      30.41S
GLENWOOD       CLEAR     45  45 100 E5        30.40S
BENSON         CLEAR     48  45  87 SE5       30.39S
ORTONVILLE     CLEAR     46  45  93 CALM      30.37S
MADISON        CLEAR     48  48 100 CALM      30.37S
WILLMAR        FAIR      46  45  93 NE3       30.40S
$$
MNZ033>034-036-042>043-049>051-058-059-300800-
   Central Minnesota

CITY           SKY/WX    TMP DP  RH WIND       PRES   REMARKS
ST CLOUD       CLEAR     49  49 100 E5        30.40F
SAUK CENTRE    FAIR      47  46  98 CALM      30.40F
PAYNESVILLE    FOG       44  45 100 CALM      30.40S VSB 1/2
AITKIN         CLOUDY    52  48  87 E3        30.42S FOG
PINE RIVER       N/A     41  41 100 CALM      30.44F FOG
BRAINERD       CLOUDY    50  49  96 VRB3      30.42S
STAPLES        FOG       43  41  93 CALM      30.41F VSB 3/4
LONG PRAIRIE   FAIR      45  45 100 CALM      30.41F
LITTLE FALLS   CLEAR     46  45  93 CALM      30.41S
LITCHFIELD     CLEAR     48  48 100 CALM      30.39F
BUFFALO        CLEAR     50  47  92 CALM      30.40S
MAPLE LAKE     CLEAR     48  47  98 CALM      30.40S FOG
HUTCHINSON     CLEAR     49  48  99 CALM      30.39S
$$
MNZ037-044-045-052-053-300800-
   East Central Minnesota

CITY           SKY/WX    TMP DP  RH WIND       PRES   REMARKS
PRINCETON      CLEAR     48  46  93 NE3       30.40F
MORA           CLOUDY    48  46  93 CALM      30.43S FOG
CAMBRIDGE      CLEAR     52  48  87 CALM      30.39S
MOOSE LAKE     CLOUDY    50  48  93 NE5       30.41F
HINCKLEY       CLOUDY    50  50 100 NE6       30.42F FOG
CLOQUET        CLOUDY    52  48  87 E7        30.44S
MCGREGOR       CLOUDY    50  50 100 E8        30.44S
$$
MNZ071>073-080-081-089-090-097-098-300800-
   Southwest Minnesota

CITY           SKY/WX    TMP DP  RH WIND       PRES   REMARKS
MONTEVIDEO     CLEAR     46  46 100 SE3       30.39S
GRANITE FALLS  CLEAR     47  44  92 CALM      30.39S
CANBY          CLEAR     44  43  97 CALM      30.38S
MARSHALL       CLEAR     44  43  96 CALM      30.38S
REDWOOD FALLS  CLEAR     50  47  89 NE3       30.37F
OLIVIA         CLEAR     50  46  87 NE5       30.37S
PIPESTONE      CLEAR     48  45  87 SE5       30.36F
WINDOM         CLEAR     48  45  87 CALM      30.37S
JACKSON        CLEAR     45  43  93 CALM      30.37F FOG
TRACY          CLEAR     51  48  89 S3        30.37F
SLAYTON        PTCLDY    43  41  93 CALM      30.38S
$$
MNZ065>067-074>077-082>085-091>093-300800-
   South Central Minnesota

CITY           SKY/WX    TMP DP  RH WIND       PRES   REMARKS
MANKATO        CLEAR     54  51  90 E7        30.36F
NEW ULM        CLEAR     52  48  87 E3        30.37S
ST JAMES       CLEAR     45  45 100 CALM      30.37F
FAIRMONT       CLEAR     46  45  96 CALM      30.36F
GLENCOE        CLEAR     47  47 100 CALM      30.37F
FARIBAULT      CLEAR     46  46 100 CALM      30.37F FOG
OWATONNA       CLEAR     52  48  87 E6        30.36F
WASECA         CLEAR     52  48  87 NE6       30.37F
ALBERT LEA     CLEAR     50  48  93 CALM      30.36S
$$
MNZ078>079-086>088-094>096-300800-
   Southeast Minnesota

CITY           SKY/WX    TMP DP  RH WIND       PRES   REMARKS
ROCHESTER      CLEAR     52  49  89 NE7       30.36S
RED WING       CLEAR     50  48  93 CALM      30.37S
STANTON        CLEAR     45  44  95 CALM      30.36F
DODGE CENTER   PTCLDY    48  46  93 N5        30.36S
WINONA         CLEAR     52  50  93 NW3       30.36S
AUSTIN         CLEAR     48  46  93 CALM      30.35S
PRESTON        CLEAR     50  48  91 N6        30.35S
$$
ABBREVIATIONS USED IN REMARKS
   TC - TEMPERATURES IN CELSIUS
  WCI - WIND CHILL INDEX
   HX - HEAT INDEX
  VSB - VISIBILITY
$$



USA.gov is the U.S. government's official web portal to all federal, state and local government web resources and services.